Date,TemperatureHighF,TemperatureAvgF,TemperatureLowF,DewpointHighF,DewpointAvgF,DewpointLowF,HumidityHigh,HumidityAvg,HumidityLow,PressureMaxIn,PressureMinIn,WindSpeedMaxMPH,WindSpeedAvgMPH,GustSpeedMaxMPH,PrecipitationSumIn
2014-1-1,28,23,18,24,19,15,91,87,83,30.26,30.10,11,2,0,0.00
2014-1-2,18,14,0,15,11,-4,91,88,84,30.44,30.05,14,3,0,0.00
2014-1-3,20,8,-6,14,3,-10,85,80,73,30.52,30.07,17,4,0,0.00
2014-1-4,36,29,20,29,22,14,83,75,69,30.07,29.93,24,7,0,0.00
2014-1-5,33,21,-1,31,19,-5,94,91,83,30.11,29.75,26,7,0,0.00
2014-1-6,-2,-9,-13,-6,-14,-18,84,79,77,30.44,30.10,20,10,0,0.00
2014-1-7,11,0,-10,5,-5,-15,81,78,77,30.47,30.32,13,6,0,0.00
2014-1-8,16,12,7,12,8,3,86,82,78,30.54,30.32,7,1,0,0.00
2014-1-9,32,22,14,30,19,9,94,88,79,30.54,30.19,12,3,0,0.00
2014-1-10,43,37,32,42,36,30,96,95,93,30.19,29.57,17,6,0,0.73
2014-1-11,41,36,31,40,34,28,97,93,86,29.84,29.45,12,5,0,0.05
2014-1-12,44,37,29,36,32,27,93,82,69,29.96,29.69,19,6,0,0.00
2014-1-13,49,42,30,42,36,27,90,80,72,29.81,29.58,17,4,0,0.00
2014-1-14,37,30,25,34,26,19,94,84,70,29.95,29.71,20,6,0,0.06
2014-1-15,24,20,17,18,15,13,86,79,73,30.14,29.95,18,5,0,0.00
2014-1-16,34,28,20,32,24,16,93,86,77,29.96,29.60,21,7,0,0.00
2014-1-17,28,15,11,24,10,6,86,81,77,30.06,29.70,16,7,0,0.00
2014-1-18,23,17,9,21,14,6,92,88,80,30.02,29.74,16,3,0,0.00
2014-1-19,36,24,7,29,20,4,91,84,76,29.98,29.63,19,8,0,0.00
2014-1-20,38,32,24,32,28,20,91,85,77,29.94,29.65,13,3,0,0.00
2014-1-21,23,10,2,20,5,-3,91,80,72,30.29,29.92,15,5,0,0.00
2014-1-22,19,9,0,15,4,-4,87,81,75,30.27,29.98,20,6,0,0.00
2014-1-23,6,1,-2,0,-5,-9,83,75,70,30.69,30.25,16,8,0,0.00
2014-1-24,24,11,-4,21,3,-9,92,72,58,30.66,29.65,32,11,0,0.00
2014-1-25,33,20,7,30,12,0,92,73,55,29.94,29.51,23,9,0,0.00
2014-1-26,40,27,11,34,20,1,87,75,55,29.90,29.49,24,8,0,0.01
2014-1-27,12,2,-3,6,-6,-11,83,70,60,30.52,29.89,23,10,0,0.00
2014-1-28,11,3,-5,1,-5,-11,80,71,62,30.53,30.34,9,2,0,0.00
2014-1-29,28,16,5,11,6,-1,87,65,48,30.34,30.14,16,4,0,0.00
2014-1-30,35,28,20,22,14,9,64,57,47,30.13,29.75,24,9,0,0.00
2014-1-31,31,24,21,25,20,17,92,86,64,30.16,29.95,9,1,0,0.02
2014-2-1,36,32,27,35,30,25,96,95,92,30.07,29.79,7,2,0,0.00
2014-2-2,29,19,10,28,16,7,93,85,76,30.32,30.06,10,2,0,0.00
2014-2-3,23,13,4,16,8,0,97,81,73,30.43,30.30,5,0,0,0.00
2014-2-4,23,20,16,19,16,12,92,86,73,30.42,29.97,10,2,0,0.00
2014-2-5,27,20,5,25,18,2,95,91,86,30.49,29.91,15,5,0,0.00
2014-2-6,5,0,-6,5,-4,-10,98,81,75,30.57,30.47,13,2,0,0.00
2014-2-7,11,2,-8,4,-4,-12,84,79,70,30.54,30.41,5,1,0,0.00
2014-2-8,20,15,6,18,12,1,91,86,79,30.42,30.16,10,2,0,0.00
2014-2-9,20,14,2,18,11,-2,91,86,79,30.35,30.14,6,2,0,0.00
2014-2-10,5,-2,-9,1,-8,-13,82,78,71,30.54,30.34,6,1,0,0.00
2014-2-11,12,-1,-13,4,-6,-17,85,79,68,30.61,30.43,6,0,0,0.00
2014-2-12,23,10,-2,15,4,-6,86,79,67,30.42,30.05,6,1,0,0.00
2014-2-13,33,21,4,28,14,0,86,76,58,30.06,29.64,13,3,0,0.00
2014-2-14,21,14,5,15,10,2,94,84,79,29.99,29.67,8,2,0,0.00
2014-2-15,21,10,-3,18,6,-6,90,82,72,30.19,29.99,7,1,0,0.00
2014-2-16,24,20,10,21,16,7,90,85,79,30.30,29.98,11,3,0,0.00
2014-2-17,34,26,15,32,23,12,95,89,81,30.29,29.72,24,8,0,0.00
2014-2-18,47,37,24,35,29,21,91,75,57,30.04,29.69,16,4,0,0.08
2014-2-19,39,36,32,34,31,29,89,83,78,30.03,29.68,10,2,0,0.00
2014-2-20,57,42,35,55,40,31,96,90,81,29.90,29.27,24,9,0,0.40
2014-2-21,40,36,32,31,28,23,86,75,58,29.87,29.53,26,9,0,0.00
2014-2-22,40,34,30,31,28,25,93,81,57,30.06,29.87,5,0,0,0.01
2014-2-23,31,25,22,26,17,14,82,72,64,30.28,30.06,11,4,0,0.01
2014-2-24,26,22,17,17,14,11,78,70,59,30.35,30.24,15,4,0,0.00
2014-2-25,24,19,10,17,12,1,86,76,61,30.28,30.18,17,5,0,0.00
2014-2-26,18,11,4,10,3,-3,75,70,61,30.30,29.80,18,7,0,0.00
2014-2-27,21,12,6,12,1,-4,73,62,50,30.23,29.79,22,5,0,0.00
2014-2-28,36,22,7,19,10,-1,79,62,44,30.24,30.03,14,4,0,0.00
2014-3-1,33,28,20,28,21,17,89,77,60,30.29,30.04,10,2,0,0.00
2014-3-2,20,12,6,16,8,0,89,83,74,30.42,30.26,11,3,0,0.00
2014-3-3,16,9,0,4,0,-7,72,66,55,30.54,30.39,5,1,0,0.00
2014-3-4,31,20,11,20,12,3,77,71,61,30.40,30.20,8,1,0,0.01
2014-3-5,27,22,18,20,16,12,88,76,61,30.41,30.24,11,2,0,0.00
2014-3-6,34,25,17,26,19,12,87,77,69,30.39,30.10,10,2,0,0.00
2014-3-7,51,37,22,35,30,20,91,76,53,30.10,29.91,9,1,0,0.00
2014-3-8,40,32,25,35,29,22,90,86,78,30.28,29.96,17,2,0,0.00
2014-3-9,44,34,24,35,29,21,93,82,69,30.28,29.93,21,4,0,0.01
2014-3-10,58,46,38,49,40,33,84,78,69,29.92,29.68,16,4,0,0.00
2014-3-11,63,46,36,50,40,34,95,83,61,29.68,29.56,15,3,0,0.00
2014-3-12,39,29,17,36,26,14,95,89,81,30.13,29.48,16,5,0,0.55
2014-3-13,39,28,15,33,23,13,91,83,75,30.21,29.95,11,3,0,0.03
2014-3-14,58,45,37,45,37,32,86,74,58,29.95,29.70,24,6,0,0.00
2014-3-15,49,39,32,36,32,26,88,75,56,30.15,29.92,15,2,0,0.00
2014-3-16,32,28,22,26,16,10,80,62,49,30.23,30.10,20,6,0,0.00
2014-3-17,38,27,17,28,20,10,83,74,64,30.11,29.84,9,2,0,0.00
2014-3-18,52,40,30,42,34,26,87,78,65,29.90,29.64,15,5,0,0.00
2014-3-19,49,42,35,45,39,29,92,87,75,30.05,29.60,20,9,0,0.10
2014-3-20,50,40,30,39,32,28,89,75,57,30.09,29.98,11,2,0,0.00
2014-3-21,65,50,35,45,38,32,92,67,45,30.01,29.70,13,4,0,0.00
2014-3-22,44,38,32,38,31,27,85,74,60,30.28,29.86,15,4,0,0.00
2014-3-23,32,29,24,27,20,16,89,69,55,30.41,30.27,11,2,0,0.00
2014-3-24,36,28,20,22,19,16,89,69,47,30.39,30.14,6,1,0,0.00
2014-3-25,30,27,22,26,19,13,91,71,54,30.28,30.03,18,5,0,0.00
2014-3-26,41,29,16,22,17,12,86,63,41,30.38,30.10,14,2,0,0.00
2014-3-27,54,44,35,49,35,20,90,73,47,30.08,29.52,31,10,0,0.49
2014-3-28,54,43,39,50,38,35,90,83,75,30.15,29.55,25,5,0,0.00
2014-3-29,40,36,29,36,32,26,92,86,78,30.25,30.09,11,3,0,0.02
2014-3-30,56,40,24,38,30,22,92,69,45,30.27,30.09,11,1,0,0.00
2014-3-31,67,54,38,42,36,32,80,55,32,30.09,29.77,25,6,0,0.00
2014-4-1,59,48,36,45,35,26,80,62,50,30.07,29.74,19,6,0,0.00
2014-4-2,54,48,42,45,38,33,79,69,54,30.13,29.96,11,2,0,0.03
2014-4-3,49,45,41,48,44,40,96,94,79,29.95,29.62,20,4,0,2.27
2014-4-4,53,43,37,53,38,30,97,85,73,30.04,29.49,26,9,0,0.02
2014-4-5,51,42,32,34,31,29,89,68,46,30.23,30.04,14,2,0,0.00
2014-4-6,56,45,34,38,34,28,81,65,46,30.18,29.91,11,2,0,0.00
2014-4-7,53,45,41,42,38,35,91,76,51,29.90,29.57,12,2,0,0.14
2014-4-8,56,48,42,48,43,38,93,83,68,29.91,29.65,10,2,0,0.09
2014-4-9,61,49,35,43,38,34,96,69,39,30.04,29.91,13,2,0,0.01
2014-4-10,70,57,48,50,45,37,84,65,48,29.92,29.74,23,5,0,0.00
2014-4-11,69,56,42,43,36,32,75,51,25,30.03,29.91,9,1,0,0.00
2014-4-12,76,64,48,60,50,36,74,61,53,30.03,29.69,22,6,0,0.00
2014-4-13,71,65,61,61,58,55,91,79,70,29.76,29.47,22,7,0,0.18
2014-4-14,64,45,32,61,42,30,95,90,79,29.96,29.39,25,6,0,0.21
2014-4-15,39,33,28,30,24,18,95,73,50,30.24,29.96,14,4,0,0.02
2014-4-16,53,41,29,31,27,23,78,61,40,30.34,30.14,22,7,0,0.00
2014-4-17,64,52,37,44,37,29,77,59,45,30.24,30.16,14,4,0,0.00
2014-4-18,66,54,42,45,41,35,82,64,35,30.30,30.21,15,2,0,0.00
2014-4-19,70,54,34,44,38,29,82,58,35,30.33,30.20,12,3,0,0.00
2014-4-20,77,61,43,46,42,36,76,53,31,30.23,30.02,9,2,0,0.00
2014-4-21,75,64,55,57,51,44,91,64,47,30.02,29.80,16,4,0,0.00
2014-4-22,60,54,42,57,42,32,92,66,44,30.03,29.78,13,4,0,0.00
2014-4-23,61,48,32,41,33,28,85,59,33,30.15,29.98,12,2,0,0.00
2014-4-24,69,59,50,51,42,39,79,55,35,30.00,29.61,22,8,0,0.01
2014-4-25,71,60,51,53,46,39,94,66,33,29.83,29.56,21,5,0,0.14
2014-4-26,71,58,47,49,43,34,80,58,40,29.92,29.81,16,2,0,0.00
2014-4-27,73,58,46,58,45,36,83,63,45,29.93,29.71,21,6,0,0.05
2014-4-28,70,57,48,61,52,43,94,83,62,29.74,29.46,14,5,0,0.61
2014-4-29,66,58,51,56,52,47,97,80,54,29.67,29.45,23,5,0,0.09
2014-4-30,53,49,47,51,45,40,93,84,70,29.84,29.67,14,3,0,0.01
2014-5-1,50,46,42,44,42,39,90,83,70,29.87,29.76,16,6,0,0.00
2014-5-2,52,49,46,45,44,41,91,81,71,29.87,29.77,13,3,0,0.01
2014-5-3,69,58,45,46,42,37,87,59,35,29.88,29.71,25,4,0,0.00
2014-5-4,64,56,48,47,38,26,80,53,33,30.02,29.87,10,2,0,0.00
2014-5-5,70,57,46,48,40,30,62,52,43,29.99,29.79,14,3,0,0.00
2014-5-6,76,62,47,52,44,38,73,54,39,29.93,29.76,15,4,0,0.00
2014-5-7,86,73,59,65,58,47,78,60,47,29.81,29.73,17,4,0,0.00
2014-5-8,88,77,67,65,62,59,79,61,40,29.87,29.77,24,7,0,0.00
2014-5-9,78,68,59,67,60,52,93,77,45,29.85,29.69,23,6,0,0.51
2014-5-10,76,65,52,51,48,43,86,57,32,29.96,29.86,6,0,0,0.00
2014-5-11,83,70,59,70,62,47,93,75,55,29.96,29.81,24,4,0,0.36
2014-5-12,84,75,66,72,69,63,94,83,68,29.91,29.81,22,6,0,0.01
2014-5-13,73,61,52,69,59,49,97,91,78,30.13,29.83,11,2,0,1.15
2014-5-14,53,50,45,49,47,43,94,89,78,30.13,29.88,15,3,0,0.47
2014-5-15,55,48,43,45,43,41,96,85,67,30.02,29.82,21,5,0,0.17
2014-5-16,53,47,41,45,42,38,94,86,67,30.09,29.93,10,2,0,0.26
2014-5-17,58,49,40,43,39,36,94,72,47,30.22,30.08,6,0,0,0.00
2014-5-18,66,55,41,45,41,38,88,63,41,30.28,30.18,5,0,0,0.00
2014-5-19,71,60,47,51,46,41,83,62,41,30.24,29.93,18,5,0,0.00
2014-5-20,84,72,61,67,61,50,84,70,57,30.01,29.81,16,4,0,0.00
2014-5-21,86,74,68,71,67,64,90,78,55,29.88,29.78,9,2,0,0.03
2014-5-22,76,68,58,66,54,49,89,62,42,30.07,29.87,9,1,0,0.00
2014-5-23,74,61,51,54,50,47,93,69,46,30.15,30.05,6,0,0,0.00
2014-5-24,77,65,49,51,47,43,87,57,31,30.19,30.07,5,0,0,0.00
2014-5-25,81,71,59,58,54,48,71,55,39,30.11,29.99,11,1,0,0.00
2014-5-26,88,75,62,69,63,56,83,67,48,30.03,29.87,12,2,0,0.00
2014-5-27,87,77,68,66,64,58,89,65,38,29.95,29.83,14,2,0,0.00
2014-5-28,84,72,63,69,66,61,93,81,57,29.95,29.86,19,1,0,0.25
2014-5-29,84,72,62,70,66,60,96,81,59,30.02,29.93,10,1,0,0.00
2014-5-30,86,75,66,63,56,49,84,56,29,30.11,30.01,9,0,0,0.00
2014-5-31,86,76,63,60,57,54,74,52,36,30.13,29.99,12,2,0,0.00
2014-6-1,88,75,63,70,63,55,88,67,50,30.04,29.87,19,3,0,0.01
2014-6-2,81,75,71,71,69,66,92,82,70,29.93,29.81,22,6,0,0.01
2014-6-3,87,77,69,68,60,53,91,61,31,29.93,29.83,11,2,0,0.00
2014-6-4,74,66,60,69,61,56,95,84,60,29.83,29.65,15,2,0,0.77
2014-6-5,77,66,54,57,54,49,95,69,41,29.93,29.84,9,0,0,0.00
2014-6-6,83,71,58,59,56,52,83,61,41,29.96,29.89,6,0,0,0.00
2014-6-7,81,72,61,61,57,55,92,62,42,29.97,29.66,14,2,0,0.53
2014-6-8,76,65,58,62,58,50,95,78,59,29.98,29.64,17,3,0,0.78
2014-6-9,80,67,54,64,57,50,89,71,51,29.96,29.83,10,1,0,0.00
2014-6-10,68,66,63,66,63,59,96,91,75,29.84,29.64,9,0,0,2.89
2014-6-11,75,68,63,68,64,62,98,88,70,29.73,29.63,9,2,0,0.00
2014-6-12,81,70,61,69,64,60,96,82,58,29.83,29.71,11,1,0,0.02
2014-6-13,74,65,56,60,50,45,85,61,36,30.01,29.82,11,2,0,0.00
2014-6-14,76,66,52,54,49,46,80,58,39,30.10,29.94,14,2,0,0.00
2014-6-15,83,72,57,71,62,51,84,71,56,29.98,29.81,24,5,0,0.00
2014-6-16,86,79,71,73,71,69,93,78,62,30.04,29.88,9,1,0,0.00
2014-6-17,90,82,74,75,72,69,83,72,59,29.93,29.83,21,5,0,0.00
2014-6-18,89,77,70,76,71,66,92,81,60,29.94,29.85,14,2,0,0.12
2014-6-19,90,76,69,76,71,66,94,84,61,30.01,29.90,12,1,0,0.04
2014-6-20,85,76,70,75,70,68,96,83,61,30.00,29.86,10,1,0,0.10
2014-6-21,86,75,67,71,68,64,96,79,54,29.94,29.82,10,1,0,0.57
2014-6-22,86,76,66,74,69,64,94,80,58,29.87,29.78,4,0,0,0.00
2014-6-23,86,75,69,77,70,65,96,84,62,29.85,29.73,14,2,0,1.51
2014-6-24,80,73,68,72,69,67,97,90,74,29.85,29.80,6,0,0,0.85
2014-6-25,85,75,66,70,68,64,95,80,55,29.97,29.84,7,0,0,0.01
2014-6-26,85,72,63,72,67,62,97,83,58,30.02,29.91,6,0,0,0.00
2014-6-27,86,77,68,73,70,66,92,79,57,29.99,29.92,12,1,0,0.01
2014-6-28,84,76,70,75,71,68,93,86,69,30.01,29.89,16,2,0,0.17
2014-6-29,83,77,73,74,72,70,91,84,73,29.97,29.87,16,3,0,0.00
2014-6-30,84,77,67,78,73,65,94,87,73,29.96,29.62,18,3,0,1.00
2014-7-1,83,74,66,73,67,65,96,81,59,29.85,29.64,16,2,0,0.66
2014-7-2,71,67,62,65,61,58,92,81,65,29.98,29.78,13,1,0,0.00
2014-7-3,74,66,59,59,58,56,95,76,53,30.17,29.97,10,1,0,0.00
2014-7-4,79,68,54,60,56,52,95,69,45,30.28,30.17,4,0,0,0.00
2014-7-5,78,70,60,64,59,55,86,70,51,30.25,30.04,11,1,0,0.02
2014-7-6,84,74,62,75,68,60,92,83,71,30.06,29.77,16,2,0,0.10
2014-7-7,88,79,72,76,72,70,94,81,58,29.76,29.66,18,2,0,0.00
2014-7-8,81,74,67,73,67,63,95,79,56,29.82,29.58,14,2,0,0.76
2014-7-9,79,70,62,64,61,59,93,74,53,30.00,29.82,13,1,0,0.00
2014-7-10,79,70,59,61,58,55,91,68,47,30.14,30.01,10,0,0,0.00
2014-7-11,81,72,59,65,60,55,88,69,50,30.17,30.06,6,1,0,0.00
2014-7-12,80,74,69,76,70,64,96,88,77,30.09,29.87,12,3,0,1.17
2014-7-13,83,76,70,75,71,67,96,82,63,29.91,29.84,15,1,0,0.50
2014-7-14,81,71,61,73,66,57,96,84,65,29.86,29.73,12,1,0,0.41
2014-7-15,69,61,53,57,54,51,91,78,62,29.95,29.83,15,2,0,0.00
2014-7-16,72,63,53,58,55,52,94,75,51,30.02,29.94,6,0,0,0.00
2014-7-17,75,66,56,62,58,54,91,75,57,30.09,30.01,5,0,0,0.00
2014-7-18,77,68,59,61,58,55,88,71,50,30.14,30.04,8,0,0,0.00
2014-7-19,77,68,57,64,61,55,94,77,59,30.06,29.97,4,0,0,0.00
2014-7-20,80,71,61,66,64,59,94,78,58,30.04,29.97,5,0,0,0.00
2014-7-21,82,73,62,69,66,61,95,79,62,30.09,29.99,6,0,0,0.00
2014-7-22,73,67,66,69,65,64,94,91,86,30.05,30.01,2,0,0,0.00
2014-8-16,77,72,64,72,68,63,96,88,80,29.92,29.87,6,0,0,0.53
2014-8-17,79,71,66,71,68,64,95,88,75,29.90,29.84,10,0,0,0.03
2014-8-18,83,72,65,72,68,64,98,87,66,29.87,29.75,4,0,0,0.00
2014-8-19,83,75,66,75,70,65,97,85,69,29.78,29.68,11,1,0,0.00
2014-8-20,83,74,65,72,69,64,95,84,65,29.93,29.75,12,0,0,0.01
2014-8-21,87,78,70,78,73,68,96,86,71,29.95,29.85,11,1,0,0.00
2014-8-22,85,77,72,76,74,71,96,89,66,29.98,29.81,6,0,0,0.57
2014-8-23,85,74,70,78,72,69,96,93,78,29.96,29.85,13,0,0,0.71
2014-8-24,88,77,69,79,74,68,98,89,75,29.97,29.90,9,1,0,0.01
2014-8-25,90,78,70,80,73,65,98,85,70,30.07,29.93,11,1,0,0.57
2014-8-26,88,76,68,79,71,65,93,85,73,30.06,29.96,14,1,0,0.00
2014-8-27,84,75,67,74,69,62,97,83,66,30.06,30.00,4,0,0,0.00
2014-8-28,83,73,64,70,65,61,90,79,61,30.05,29.95,6,0,0,0.00
2014-8-29,86,75,70,77,71,67,92,86,71,29.99,29.84,10,2,0,0.00
2014-8-30,82,76,67,74,70,64,93,84,73,29.91,29.83,15,3,0,0.06
2014-8-31,83,76,68,74,71,66,96,87,73,29.92,29.83,4,0,0,0.00
2014-9-1,83,75,70,73,70,66,95,84,63,29.86,29.74,18,2,0,0.00
2014-9-2,82,73,67,71,68,65,96,85,63,29.94,29.78,13,1,0,0.02
2014-9-3,84,73,62,69,65,61,97,78,52,30.01,29.93,6,0,0,0.01
2014-9-4,87,35,69,76,31,65,87,32,65,30.02,29.89,15,1,0,0.00
2014-9-5,93,50,68,77,44,66,95,45,56,30.00,29.80,15,2,0,0.84
2014-9-6,74,66,58,66,59,51,96,80,56,30.15,29.96,7,0,0,0.07
2014-9-7,76,64,51,57,54,49,96,71,47,30.20,30.08,5,0,0,0.00
2014-9-8,78,67,57,60,56,52,86,69,46,30.11,29.97,7,1,0,0.00
2014-9-9,74,67,59,67,62,55,94,84,72,30.08,29.83,17,2,0,0.37
2014-9-10,78,71,63,74,68,59,96,91,83,29.83,29.58,25,5,0,1.99
2014-9-11,62,56,51,59,52,48,94,88,83,30.24,29.81,6,1,0,0.00
2014-9-12,62,54,47,52,49,45,94,83,65,30.26,30.15,12,1,0,0.10
2014-9-13,62,50,40,46,44,39,95,79,52,30.36,30.23,9,1,0,0.02
2014-9-14,69,55,42,50,46,40,95,74,47,30.32,30.16,7,0,0,0.00
2014-9-15,58,54,50,56,52,47,96,91,83,30.17,30.02,11,0,0,0.74
2014-9-16,68,57,50,54,51,48,96,82,52,30.19,30.05,4,0,0,0.00
2014-9-17,71,58,47,56,51,45,95,78,54,30.06,29.92,3,0,0,0.01
2014-9-18,73,62,51,53,50,44,91,68,36,30.09,30.00,6,0,0,0.00
2014-9-19,74,63,51,54,51,48,89,68,45,30.14,29.96,14,2,0,0.00
2014-9-20,83,68,56,71,62,52,95,83,62,29.97,29.77,22,2,0,1.09
2014-9-21,70,63,53,68,57,50,95,79,59,30.08,29.73,11,2,0,0.01
2014-9-22,68,56,44,50,47,43,95,75,47,30.26,30.08,4,0,0,0.00
2014-9-23,74,60,46,52,49,44,93,69,44,30.34,30.22,9,0,0,0.00
2014-9-24,77,64,51,53,51,48,88,66,40,30.32,30.20,10,1,0,0.00
2014-9-25,79,65,54,59,54,50,90,70,36,30.27,30.15,1,0,0,0.00
2014-9-26,84,68,54,60,55,52,92,67,35,30.22,30.13,3,0,0,0.00
2014-9-27,83,69,58,61,57,54,90,67,41,30.20,30.08,4,0,0,0.00
2014-9-28,83,69,54,60,55,51,93,64,34,30.11,30.00,1,0,0,0.00
2014-9-29,85,68,52,61,57,51,95,71,41,30.02,29.88,5,0,0,0.00
2014-9-30,69,59,50,59,52,46,92,79,57,29.98,29.89,11,1,0,0.00
2014-10-1,78,62,48,61,54,46,92,77,54,29.98,29.85,11,2,0,0.00
2014-10-2,76,69,64,69,65,61,95,89,77,29.88,29.62,17,3,0,0.96
2014-10-3,67,56,45,65,52,36,96,86,68,29.84,29.48,13,3,0,0.66
2014-10-4,49,43,39,39,35,31,86,73,63,29.83,29.76,14,2,0,0.01
2014-10-5,58,49,37,46,40,34,90,72,51,29.82,29.66,9,1,0,0.00
2014-10-6,66,55,46,53,45,41,94,72,43,29.72,29.60,15,2,0,0.01
2014-10-7,70,57,47,58,50,42,94,79,47,29.88,29.64,12,1,0,0.00
2014-10-8,68,55,44,46,42,39,89,65,39,30.06,29.88,9,1,0,0.00
2014-10-9,60,54,51,54,50,43,95,85,71,30.13,30.02,4,0,0,0.00
2014-10-10,57,52,46,45,41,38,86,68,52,30.14,30.06,6,0,0,0.00
2014-10-11,59,49,39,43,39,36,91,71,46,30.22,30.10,6,0,0,0.00
2014-10-12,63,52,40,57,47,36,96,83,66,30.12,29.85,14,3,0,0.00
2014-10-13,72,65,58,67,63,57,98,92,81,29.86,29.52,25,5,0,0.00
2014-10-14,65,60,55,62,58,54,95,91,81,29.60,29.43,17,3,0,0.00
2014-10-15,55,54,53,55,53,52,97,96,94,29.78,29.60,6,1,0,0.00
2014-10-16,58,55,52,54,52,51,97,91,84,29.84,29.69,7,1,0,0.00
2014-10-17,63,55,50,52,49,47,94,81,66,29.85,29.59,15,5,0,0.00
2014-10-18,53,48,44,48,44,42,92,85,77,30.20,29.85,11,1,0,0.00
2014-10-19,57,47,36,45,42,35,96,82,60,30.24,29.97,9,1,0,0.00
2014-10-20,67,56,47,52,49,44,90,76,57,29.98,29.81,16,2,0,0.00
2014-10-21,56,51,48,49,45,41,93,80,63,30.22,29.95,12,1,0,0.00
2014-10-22,60,48,37,40,38,35,93,70,44,30.35,30.22,5,0,0,0.00
2014-10-23,60,48,37,46,41,35,94,78,58,30.25,30.07,7,1,0,0.00
2014-10-24,69,57,49,56,50,45,93,81,58,30.07,29.93,7,1,0,0.00
2014-10-25,74,60,51,59,50,40,96,73,41,29.96,29.88,13,1,0,0.00
2014-10-26,70,54,40,40,37,33,82,55,28,30.02,29.84,5,0,0,0.00
2014-10-27,77,67,53,62,53,39,91,63,46,29.83,29.61,22,5,0,0.00
2014-10-28,69,57,44,60,47,38,94,71,48,30.00,29.68,12,4,0,0.00
2014-10-29,48,44,38,38,36,34,88,76,64,30.15,29.98,13,2,0,0.25
2014-10-30,53,43,34,42,37,31,91,78,57,30.16,30.04,6,0,0,0.01
2014-10-31,45,40,34,43,33,28,92,77,60,30.27,30.00,18,6,0,0.01
2014-11-1,46,36,29,31,28,25,87,73,49,30.42,30.27,11,1,0,0.00
2014-11-2,53,40,25,30,27,23,93,65,37,30.47,30.23,14,3,0,0.00
2014-11-3,65,55,45,44,36,29,60,49,40,30.23,30.02,21,7,0,0.00
2014-11-4,57,48,40,50,43,38,95,84,50,30.14,29.98,18,4,0,0.43
2014-11-5,61,47,37,47,41,36,95,81,51,30.19,29.91,10,2,0,0.00
2014-11-6,47,43,38,45,38,28,93,81,66,30.21,29.80,19,6,0,0.09
2014-11-7,45,39,31,34,31,27,85,73,61,30.22,29.86,11,1,0,0.00
2014-11-8,46,42,34,42,35,29,90,76,62,30.00,29.75,13,3,0,0.00
2014-11-9,52,41,30,38,33,26,92,74,56,30.00,29.80,17,3,0,0.00
2014-11-10,63,53,43,47,43,39,85,70,53,29.84,29.57,19,6,0,0.00
2014-11-11,56,42,33,46,37,26,92,81,64,30.15,29.62,16,6,0,0.15
2014-11-12,33,28,22,26,21,17,81,75,70,30.34,30.16,12,4,0,0.00
2014-11-13,28,25,21,22,18,16,87,77,66,30.36,30.32,12,4,0,0.00
2014-11-14,28,23,16,19,16,13,86,75,61,30.41,30.36,8,1,0,0.00
2014-11-15,34,26,16,24,19,13,89,74,56,30.45,30.22,9,0,0,0.00
2014-11-16,33,30,26,29,27,24,94,88,77,30.22,29.92,12,1,0,0.00
2014-11-17,26,18,12,23,12,5,89,76,61,30.11,29.90,16,7,0,0.00
2014-11-18,18,14,10,11,8,5,82,75,67,30.25,30.10,15,6,0,0.00
2014-11-19,36,26,16,27,18,10,81,73,65,30.15,29.85,22,8,0,0.01
2014-11-20,32,23,16,17,14,8,83,69,49,30.36,30.09,15,3,0,0.00
2014-11-21,36,24,9,21,12,5,85,64,44,30.51,30.24,14,4,0,0.00
2014-11-22,55,46,33,49,41,22,91,83,59,30.23,29.89,20,6,0,0.15
2014-11-23,56,51,48,51,48,43,97,90,80,29.89,29.12,15,5,0,1.17
2014-11-24,52,39,32,51,36,27,97,89,80,29.89,29.06,24,10,0,0.54
2014-11-25,32,27,24,27,22,20,86,82,78,30.23,29.89,14,3,0,0.00
2014-11-26,31,26,22,25,22,19,92,85,78,30.20,30.09,8,1,0,0.00
2014-11-27,28,24,16,24,20,12,90,84,73,30.45,30.20,12,3,0,0.00
2014-11-28,37,28,15,30,23,12,87,81,74,30.43,29.93,16,4,0,0.00
2014-11-29,54,45,35,51,41,29,92,84,76,29.92,29.68,23,5,0,0.00
2014-11-30,62,48,32,58,46,29,94,91,84,30.25,29.69,20,8,0,0.00
2014-12-1,32,26,22,29,18,13,87,72,51,30.61,30.25,11,3,0,0.00
2014-12-2,32,29,23,30,25,18,93,86,81,30.51,30.13,11,2,0,0.00
2014-12-3,40,32,26,29,25,20,93,77,54,30.40,30.14,11,2,0,0.00
2014-12-4,34,31,26,32,26,20,94,83,73,30.41,30.24,9,1,0,0.00
2014-12-5,41,37,34,40,36,32,96,95,92,30.24,30.12,7,2,0,0.33
2014-12-6,41,36,29,37,33,27,95,88,77,30.61,30.17,14,3,0,0.00
2014-12-7,36,32,28,31,28,23,95,85,79,30.64,30.30,13,3,0,0.00
2014-12-8,39,35,32,38,33,29,96,92,88,30.30,30.05,13,3,0,0.22
2014-12-9,38,34,32,36,33,30,96,94,90,30.36,30.11,17,4,0,0.01
2014-12-10,35,33,32,31,30,28,91,87,80,30.38,30.26,9,2,0,0.00
2014-12-11,32,29,24,28,26,22,92,87,81,30.32,30.23,6,1,0,0.00
2014-12-12,35,30,22,33,29,20,96,94,91,30.37,30.28,10,1,0,0.00
2014-12-13,50,43,35,44,40,33,92,89,79,30.29,30.11,7,1,0,0.00
2014-12-14,48,46,44,46,44,42,96,94,92,30.14,30.02,9,1,0,0.00
2014-12-15,46,44,42,45,43,40,97,96,93,30.01,29.65,15,6,0,0.04
2014-12-16,46,38,29,45,37,26,97,93,88,30.18,29.64,23,7,0,0.02
2014-12-17,29,25,23,26,21,19,95,85,78,30.33,30.18,13,4,0,0.00
2014-12-18,28,25,21,23,21,18,95,83,79,30.34,30.24,3,0,0,0.00
2014-12-19,31,25,17,28,22,15,92,89,80,30.36,30.29,2,0,0,0.00
2014-12-20,35,32,29,29,27,26,92,84,74,30.32,30.25,3,0,0,0.00
2014-12-21,40,32,29,33,29,26,91,87,77,30.28,30.02,10,2,0,0.00
2014-12-22,45,37,29,44,35,27,97,93,90,30.02,29.56,13,6,0,0.49
2014-12-23,49,46,43,48,44,41,97,90,80,29.75,29.55,14,2,0,0.05
2014-12-24,43,39,36,41,37,34,96,94,90,29.72,29.51,16,3,0,0.37
2014-12-25,44,38,35,38,34,32,93,86,78,30.06,29.72,16,5,0,0.00
2014-12-26,52,44,36,45,40,33,91,86,78,30.10,30.03,15,3,0,0.00